Cloud_Cover
0 0 0 0 0 0 0 0 0 0 0 0 0 0 0 0 0 0 0 0 0 0 0 0 8 32 56 68 80 92 92 92 92 92 92 92 92 92 92 92 92 92 92 92 92 92 92 92 92 80 68 64 64 76 80 76 76 76 76 76 80 80 80 80 76 64 56 44 32
0 0 0 0 0 0 0 0 0 0 0 0 0 0 0 0 0 0 0 0 0 0 0 0 0 36 80 88 92 92 92 92 92 92 92 92 92 92 92 92 92 92 92 92 92 92 92 92 92 88 80 76 80 80 80 88 88 88 80 80 80 76 76 76 76 68 64 56 48
0 0 0 0 0 0 0 0 0 0 0 0 0 0 0 0 0 8 8 12 12 8 8 8 56 76 88 88 92 92 88 92 92 92 92 92 92 92 92 80 92 92 92 92 92 92 88 88 88 88 88 88 88 88 92 92 92 88 88 80 76 76 80 80 76 68 64 64 56
0 0 0 0 0 0 0 0 0 0 0 0 0 0 0 0 8 12 20 24 24 20 20 12 12 24 44 88 76 68 68 76 80 80 80 80 88 92 92 92 92 92 92 92 92 92 92 92 92 92 92 92 92 92 92 92 80 80 76 64 68 76 76 64 64 64 56 56 48
0 0 0 0 0 0 0 0 0 0 0 0 0 0 0 0 8 20 24 32 32 24 20 20 8 0 0 8 44 56 64 64 64 64 64 64 80 92 92 92 92 92 92 92 92 92 92 92 92 92 92 92 92 88 80 80 76 76 68 68 64 64 56 48 48 44 48 44 44
0 0 0 0 0 0 0 0 0 0 0 0 0 8 8 12 20 20 24 24 32 36 32 20 20 20 24 20 8 0 0 20 36 56 76 92 92 92 92 92 92 92 88 80 92 80 68 64 64 64 68 76 76 64 56 64 68 68 68 56 56 48 48 56 44 36 36 36 32
0 0 0 0 0 0 0 0 0 0 0 8 8 8 8 12 20 20 20 20 8 8 20 36 44 36 32 20 12 8 0 0 0 8 20 44 68 88 92 92 92 88 88 80 76 80 80 76 76 76 76 80 76 64 56 68 68 56 48 44 44 48 56 64 56 48 44 36 56
0 0 0 0 0 0 0 0 0 0 8 8 8 8 8 8 0 0 0 0 0 0 0 12 24 24 12 8 8 0 0 0 0 0 12 44 48 64 68 68 76 76 76 76 88 88 88 80 80 80 76 68 68 68 64 68 56 56 56 64 68 76 76 76 68 64 64 56 68
0 0 0 0 0 0 0 0 0 8 8 0 0 0 0 0 0 0 0 0 0 8 12 24 12 12 8 8 8 8 8 0 8 32 64 80 76 68 64 64 76 80 80 88 88 88 80 76 76 76 76 68 76 76 68 68 64 64 64 68 76 76 80 80 80 80 76 64 64
0 0 0 0 0 0 0 0 8 0 0 0 0 0 0 0 0 8 12 12 20 24 32 24 12 8 8 8 8 12 8 0 24 64 88 88 76 68 68 76 76 76 76 80 76 76 68 68 76 68 68 68 76 76 68 68 68 64 56 56 56 56 64 68 76 68 64 56 56
0 0 0 0 0 0 8 0 0 0 0 0 0 0 0 0 8 8 8 0 24 36 36 24 12 8 8 8 8 0 0 0 20 44 64 56 48 56 64 68 56 64 68 64 56 48 48 68 68 64 64 68 68 68 68 68 64 64 64 64 64 64 64 64 64 64 64 56 48
0 0 0 8 8 0 0 0 0 0 0 0 0 0 0 0 0 0 0 0 24 32 24 20 8 8 0 0 0 0 0 0 20 36 48 48 48 48 48 56 56 56 56 56 48 48 56 48 44 44 48 48 56 56 56 48 44 36 36 44 48 48 56 56 56 56 48 44 44
0 8 8 8 0 0 0 0 0 0 0 0 0 0 0 0 0 0 0 8 12 12 8 8 0 0 0 0 0 8 12 20 24 24 32 36 36 36 48 56 64 64 64 56 56 56 56 48 44 36 36 36 36 36 32 20 20 20 12 20 24 32 32 36 36 36 36 36 36
8 8 8 8 0 0 0 0 0 0 0 0 0 0 0 0 0 0 8 8 0 0 0 0 0 0 0 0 12 24 32 32 32 24 20 24 24 20 24 36 48 48 48 48 48 48 48 44 44 36 36 32 32 24 24 32 32 32 24 24 24 24 24 24 24 32 36 32 32
12 8 0 0 0 0 0 0 0 0 0 0 0 0 0 0 8 8 8 8 8 8 8 8 0 8 12 24 36 44 44 44 36 32 24 24 20 20 24 36 36 44 48 48 56 56 56 48 48 44 44 36 36 32 32 36 32 32 32 32 32 32 32 32 32 32 32 32 24
12 8 0 0 0 0 0 0 0 0 0 0 0 8 8 20 20 20 20 24 24 24 24 24 24 32 48 56 64 64 56 48 44 32 32 32 32 32 44 64 68 68 68 64 68 68 64 56 56 48 48 44 36 36 36 36 36 32 32 24 24 24 24 24 32 32 32 24 24
8 0 0 0 0 0 0 0 0 0 8 20 12 12 20 24 24 36 48 56 64 68 68 76 64 68 76 88 76 68 56 48 44 44 44 48 56 64 68 80 76 76 68 68 64 64 64 64 56 56 48 44 44 44 44 44 36 36 36 32 32 32 32 32 36 36 36 32 32
0 0 0 0 0 0 0 0 0 12 24 32 32 24 32 32 44 64 80 88 92 92 88 80 76 76 88 80 76 68 56 56 56 64 68 68 76 80 88 88 76 76 76 76 76 76 76 76 64 56 56 48 48 44 44 44 44 44 44 44 44 44 44 44 36 36 36 32 32
0 0 0 0 0 0 0 0 0 20 44 44 44 44 48 56 68 80 92 92 92 80 68 68 76 80 76 56 64 64 64 56 68 76 80 80 80 80 80 80 76 76 76 76 76 76 68 68 68 56 48 48 36 32 32 24 32 32 32 36 36 36 36 32 24 24 24 24 24
0 0 0 0 0 0 0 0 12 32 48 64 68 76 80 80 88 92 92 92 80 68 64 64 64 64 64 64 64 56 64 68 80 88 80 80 76 76 68 68 68 68 64 64 56 56 48 48 48 44 36 36 24 12 12 8 8 12 12 12 20 20 20 8 8 8 12 8 8
0 0 0 0 0 0 0 0 48 76 76 88 88 92 92 92 92 92 88 76 64 56 56 48 48 48 56 64 56 64 68 80 80 80 80 76 64 64 64 64 56 56 48 44 44 44 36 36 32 24 24 20 12 8 8 0 0 0 0 0 0 0 0 0 0 0 0 0 0
0 0 0 0 0 0 8 32 76 92 92 92 92 92 92 92 92 80 68 48 48 48 48 48 48 44 44 64 64 64 68 80 80 76 64 56 56 56 56 48 44 44 44 44 44 36 36 24 20 20 12 8 0 0 0 0 0 0 0 0 0 0 0 0 0 0 0 0 0
0 0 0 0 0 0 0 12 76 92 92 92 92 92 92 92 80 64 48 44 44 44 44 48 44 36 44 56 64 64 64 76 68 64 56 56 56 56 48 44 44 36 36 36 36 32 24 20 12 8 0 0 0 0 0 0 0 0 0 0 0 0 0 0 0 0 0 0 0
0 0 0 0 0 0 12 68 88 92 92 92 92 92 88 76 64 48 44 44 44 36 36 48 44 36 36 56 56 56 64 64 56 56 64 64 56 48 44 36 36 32 32 36 32 32 24 20 12 8 0 0 0 0 0 0 0 0 0 0 0 0 0 0 0 0 0 0 0
0 0 0 0 0 0 20 88 92 92 80 64 48 36 32 20 20 20 20 32 32 36 44 44 44 44 44 48 48 56 56 56 48 48 48 48 48 48 44 36 36 36 36 44 44 36 32 24 20 8 0 0 0 0 0 0 0 0 0 0 0 0 0 0 0 0 0 0 0
12 8 8 8 8 0 12 64 32 20 8 8 0 0 0 8 8 12 20 24 36 44 44 48 48 48 48 48 56 56 48 48 48 44 44 44 36 44 44 48 56 64 64 64 64 56 44 32 20 8 0 0 0 0 0 0 0 0 0 0 0 0 0 0 0 0 0 0 0
20 12 12 12 8 0 0 0 0 0 0 0 0 0 0 0 12 24 32 44 44 48 48 56 56 56 56 56 64 56 48 48 48 44 44 36 36 48 64 68 76 80 80 76 64 56 44 32 12 0 0 0 0 0 0 0 0 0 0 0 0 0 0 0 0 0 0 0 0
24 24 12 8 0 0 0 0 0 0 0 0 0 0 8 20 20 32 36 32 44 64 76 64 64 64 64 64 64 64 64 64 56 56 56 56 76 80 80 80 92 92 88 68 64 48 24 0 0 0 0 0 0 0 0 0 0 0 0 0 0 0 0 0 0 0 0 0 0
0 0 0 0 0 0 0 0 0 0 0 0 0 0 8 24 36 36 48 68 64 68 68 56 48 48 56 48 56 64 64 56 56 76 88 88 88 92 92 92 92 88 76 44 24 12 0 0 0 0 0 0 0 0 0 0 0 0 0 0 0 0 0 0 0 0 0 0 0
0 0 0 0 0 0 0 0 0 0 0 0 0 8 12 12 24 24 24 36 24 12 0 0 0 0 0 12 24 36 44 44 80 92 92 92 92 92 92 92 76 64 44 24 8 0 0 0 0 0 0 0 0 0 0 0 0 0 0 0 0 0 0 0 0 0 0 0 0
0 0 0 0 0 0 0 0 0 0 0 0 0 0 0 0 0 0 0 0 0 0 0 8 8 12 20 24 32 56 80 80 88 92 92 92 80 76 64 44 32 12 0 0 0 0 0 0 0 0 0 0 0 0 0 0 0 0 0 0 0 0 0 0 0 0 0 0 0
0 0 0 0 0 0 0 0 0 0 0 0 0 0 0 0 12 12 12 12 12 12 20 32 36 56 76 92 92 92 92 92 92 88 80 68 48 36 20 8 0 0 0 0 0 0 0 0 0 0 0 0 0 0 0 0 0 0 0 0 0 0 0 0 0 0 0 0 0
0 0 0 0 0 0 8 0 12 12 12 12 8 8 12 32 36 32 24 20 24 36 64 88 92 92 92 92 92 92 92 88 88 76 48 32 12 0 0 0 0 0 0 0 0 0 0 0 0 0 0 0 0 0 0 0 0 0 0 0 0 0 0 0 0 0 0 0 8
0 0 0 0 8 8 8 8 12 20 20 20 20 32 44 48 48 44 48 56 64 76 92 92 92 92 92 92 92 88 88 80 64 48 24 0 0 0 0 0 0 0 0 0 0 0 0 0 0 0 0 0 0 0 0 0 0 0 0 0 0 0 0 0 0 0 0 8 64
0 0 8 8 8 8 8 12 20 20 24 44 56 68 76 76 68 68 76 92 92 92 92 92 92 92 88 80 80 68 56 36 20 8 0 0 0 0 0 0 0 0 0 0 0 0 0 0 0 0 0 0 0 0 0 0 0 0 0 0 0 0 0 0 0 0 8 44 76
8 8 8 12 20 20 20 20 24 32 48 76 88 92 92 92 92 92 92 92 92 88 88 76 68 68 56 44 32 20 8 0 0 0 0 0 0 0 0 0 0 0 0 0 0 0 0 0 0 0 0 0 0 0 0 0 0 0 0 8 8 8 8 0 20 20 32 76 76
20 20 24 32 44 44 44 36 48 64 80 92 88 88 80 88 88 80 80 80 76 68 56 32 12 0 0 0 0 0 0 0 0 0 0 0 0 0 0 0 0 0 0 0 0 0 0 0 0 0 0 0 0 0 0 0 0 12 32 48 44 36 36 24 68 68 44 32 32
36 36 44 56 68 76 76 68 76 88 92 92 80 68 56 64 64 56 56 56 44 36 24 8 8 0 0 0 0 0 0 0 0 0 0 0 0 0 0 0 0 0 0 0 0 0 0 0 0 0 0 0 0 0 0 0 0 36 80 80 68 64 56 44 48 32 12 0 0
56 56 64 68 80 88 88 88 88 88 92 88 64 48 48 48 48 48 44 36 32 24 20 12 8 8 8 0 0 0 0 0 0 0 0 0 0 0 0 0 0 0 0 0 0 0 0 0 0 0 0 0 0 0 0 0 0 24 44 48 24 20 24 32 8 8 12 0 0
68 68 76 76 80 88 92 88 88 80 80 76 48 44 44 56 56 48 44 32 24 20 20 12 12 8 8 0 0 0 0 0 0 0 0 0 0 0 0 0 0 0 0 0 0 0 0 0 0 0 0 0 0 0 0 8 12 8 12 44 36 24 12 12 12 36 44 12 0
80 76 76 80 88 88 88 80 80 76 76 64 56 48 56 56 56 44 32 24 20 20 12 12 12 8 0 0 0 0 0 0 0 0 0 0 0 0 0 0 0 0 0 0 0 0 0 0 0 0 0 0 0 8 24 48 32 36 48 68 48 44 36 44 56 56 44 12 24